Volver al catálogo

THOR ABLESTAR DEB

ActivoLEO
NORAD 324·DEBRIS·🇺🇸 United States

Lanzado Jun 29, 1961 desde Cape Canaveral Space Force Station

Loading…

Próximos Pases (próximas 24 horas)

TLE

ActualizadoSource: Space-Track

Época: Sep 5, 2026, 05:41 UTC

1   324U 61015DA  26248.23724257  .00000446  00000-0  27333-3 0  9991
2   324  66.8690 188.6404 0070963 323.4427  36.1831 14.13465310334388

Sigue THOR ABLESTAR DEB en tiempo real con AllMySat

Download on the App Store